Wetbulb
66.29 69.99 74.12 74.04 72.82 73.32 73.63 74.06 74.49 73.77 72.54 73.75 73.48 73.29 72.78 72.76 73.48 73.14 72.88 72.41 72.98 72.11 71.53 71.24 71.73 72.34 72.29 71.83 70.98 70.89 70.93 70.95 70.93 71.41 71.84 71.22 70.94 71.03 71.47 71.06 71.07 68.40 71.13
67.28 70.24 73.67 73.57 73.14 72.88 73.90 74.46 73.75 73.72 73.78 73.95 73.55 73.16 72.34 72.47 73.11 72.97 72.40 72.00 72.31 71.67 71.19 70.84 70.62 71.81 72.06 72.06 71.58 71.13 71.03 70.96 70.83 71.01 70.77 70.72 71.05 71.22 71.09 70.44 70.96 69.31 71.33
66.29 69.33 71.11 72.97 73.40 73.28 74.05 74.33 73.89 73.52 73.68 73.57 73.31 73.17 72.06 71.97 72.26 72.36 72.57 72.72 73.05 72.00 71.68 70.68 70.09 70.47 71.13 71.45 71.36 71.08 70.85 70.46 70.64 70.87 70.08 68.17 69.11 71.51 71.25 71.49 71.10 70.99 71.02
61.85 69.38 70.16 73.06 73.43 73.39 73.47 73.77 73.81 73.46 73.41 73.21 72.90 73.05 71.89 72.16 72.27 72.95 72.88 72.38 72.62 72.55 72.10 71.73 70.77 70.04 70.23 70.56 70.48 70.37 70.23 70.09 69.99 69.47 67.45 68.61 69.62 71.55 71.63 70.96 70.63 70.12 69.80
58.69 65.58 69.83 73.06 73.31 73.51 73.20 73.20 73.78 73.74 73.65 73.41 72.76 72.83 72.88 73.17 72.98 72.67 72.37 72.24 72.64 72.67 72.31 71.19 70.48 70.32 69.57 69.92 70.05 70.01 69.69 69.01 68.75 67.62 66.53 67.20 68.22 70.48 70.97 70.20 69.33 68.65 68.05
57.94 59.30 66.42 72.55 73.22 73.15 72.97 73.26 73.45 73.62 73.63 73.37 73.04 73.06 73.09 73.53 72.90 72.40 71.71 71.75 71.64 71.47 71.31 70.54 70.15 69.69 69.23 69.74 69.97 69.27 68.56 68.52 67.30 67.06 66.75 68.23 67.34 70.30 70.11 69.03 68.24 67.35 66.75
57.15 59.02 64.44 72.53 72.24 72.68 72.84 72.80 73.15 73.39 73.31 73.32 73.17 73.40 73.46 72.58 72.35 71.59 70.61 70.80 70.66 70.58 70.03 69.52 69.31 69.14 69.17 69.71 69.73 68.98 67.61 68.32 66.11 65.44 65.13 65.27 66.51 68.98 68.56 67.92 67.19 66.39 66.05
58.36 61.86 65.52 67.81 71.80 71.92 72.29 72.16 72.53 72.74 72.81 72.71 73.03 72.22 72.18 72.08 71.39 70.42 69.27 68.94 68.63 68.39 68.31 68.14 68.06 68.75 69.35 69.56 69.82 68.02 67.92 67.31 65.38 64.93 64.69 65.08 68.04 67.95 67.07 66.75 66.34 66.14 66.46
61.16 61.82 63.08 64.08 67.37 70.09 71.03 71.09 71.49 71.67 71.77 72.18 71.40 71.42 71.07 70.89 70.66 69.68 68.86 68.14 67.70 67.21 67.08 67.19 67.52 68.47 69.80 70.47 68.54 66.91 68.00 66.17 64.04 63.90 63.76 62.91 67.01 66.78 66.25 65.69 66.00 66.96 67.35
59.08 61.64 60.90 61.82 63.68 65.20 68.15 69.30 69.46 70.28 70.55 70.76 70.09 69.56 68.75 68.40 68.59 68.84 67.93 67.91 67.96 68.33 68.19 67.83 68.30 69.44 69.34 68.44 68.21 67.61 65.82 64.97 62.79 63.21 62.89 63.55 65.98 65.91 65.48 65.30 66.96 67.60 67.91
57.65 60.42 60.19 60.22 60.84 61.71 64.33 67.09 68.16 68.74 68.65 68.59 68.25 67.12 66.38 66.09 66.19 65.73 64.89 66.49 67.61 67.79 67.86 67.95 68.95 69.02 68.18 67.31 66.94 65.54 64.48 62.39 62.47 62.12 61.41 65.72 64.95 65.13 65.37 65.51 67.12 67.77 67.49
52.70 58.94 59.04 58.79 58.88 60.19 62.63 60.84 65.64 67.43 67.85 67.48 67.35 66.23 64.40 63.59 62.97 63.64 63.04 65.08 67.25 67.38 67.12 67.37 67.87 67.64 65.59 63.14 64.25 64.26 62.35 61.70 62.04 61.56 61.96 65.29 64.95 65.18 64.60 66.21 66.66 66.73 66.55
53.26 58.43 58.56 58.22 57.92 57.72 59.05 59.27 61.27 66.82 67.05 66.43 65.24 64.22 63.49 62.44 62.29 61.40 61.17 62.73 63.33 64.11 62.85 64.49 64.25 62.55 60.10 60.84 61.37 62.43 61.31 60.83 60.32 60.58 63.03 64.67 64.74 64.85 65.74 67.16 66.33 65.80 65.93
53.92 57.15 57.76 57.18 56.89 56.13 57.14 57.87 57.87 64.93 66.50 65.70 64.43 63.78 63.08 61.70 60.71 60.25 60.73 58.71 60.92 62.55 62.35 63.16 62.00 60.81 59.86 60.01 60.82 60.49 60.21 59.58 57.73 58.91 61.48 62.29 64.24 65.13 66.14 66.29 65.52 65.06 64.99
53.97 56.18 56.68 56.16 55.57 55.75 55.48 55.99 57.40 57.39 57.07 57.79 64.47 63.65 62.46 61.19 60.05 60.25 59.10 58.50 61.33 62.56 62.48 61.36 60.79 59.60 57.46 58.15 56.82 60.48 58.79 57.74 56.37 57.25 57.00 60.92 63.49 64.63 64.61 64.59 64.55 64.46 64.78
55.29 55.82 55.60 55.73 55.36 55.28 54.13 54.31 56.69 56.61 57.88 57.40 56.92 63.11 61.36 61.01 60.25 59.87 58.68 59.19 61.25 61.81 62.10 59.91 59.93 57.60 56.25 55.52 55.62 58.40 57.78 56.67 56.00 56.28 56.90 59.33 61.39 63.28 63.38 63.06 63.02 62.56 62.80
55.38 56.13 55.38 55.23 55.35 54.53 53.43 53.03 53.81 56.34 59.11 57.31 57.75 57.90 60.98 60.65 59.94 59.47 59.03 59.35 61.36 62.03 61.63 58.41 59.11 57.11 54.77 55.74 53.04 54.93 56.07 55.54 55.45 54.86 55.01 57.28 59.52 61.46 61.95 62.69 62.28 61.83 61.79
53.37 55.31 55.15 56.70 55.24 55.90 52.07 51.65 52.48 53.86 55.64 55.76 55.77 57.59 60.64 59.91 59.51 58.90 58.61 59.76 61.34 61.48 60.02 56.77 56.35 55.08 54.26 53.59 51.38 51.74 53.71 55.38 55.02 54.57 54.80 54.15 54.07 54.47 59.21 62.45 62.07 61.28 61.00
53.75 54.15 53.87 54.41 54.23 54.10 51.36 50.86 50.80 52.96 54.42 54.03 53.77 57.62 59.82 58.92 59.02 58.70 58.08 59.13 59.47 58.50 57.51 55.49 52.72 54.12 52.28 48.98 49.60 48.94 50.45 52.50 54.23 55.63 53.59 53.11 53.54 52.72 53.44 58.64 59.05 60.29 61.02
53.52 53.70 53.47 53.57 54.55 53.09 52.25 52.23 50.60 51.52 53.81 55.11 53.79 54.71 57.55 58.07 58.02 57.88 57.17 56.52 58.09 56.34 54.07 52.70 51.89 50.42 48.83 47.50 49.64 47.61 47.18 48.08 49.43 50.04 50.44 52.46 51.90 51.98 51.23 51.34 50.49 53.25 58.50
52.49 52.58 54.04 53.53 53.78 52.61 51.87 51.33 51.33 50.67 51.95 53.03 53.92 53.50 54.19 55.70 56.16 56.60 55.52 54.26 54.96 54.27 51.46 51.71 50.27 48.50 45.51 48.24 46.80 46.67 47.47 46.84 46.68 47.19 48.34 48.31 49.72 50.07 49.17 49.40 48.84 49.83 52.20
52.32 52.53 53.31 54.02 53.59 52.32 51.81 52.31 52.26 51.11 51.81 52.36 52.99 54.16 53.60 53.72 54.25 55.04 53.97 53.56 53.52 51.95 50.45 49.91 49.46 46.83 47.16 48.20 46.27 46.11 43.53 45.98 47.63 47.65 46.99 48.01 47.94 48.56 47.80 47.39 48.26 48.70 49.55
50.61 52.89 54.44 53.96 53.93 53.81 53.51 52.76 50.75 50.62 51.05 50.25 50.74 51.40 52.30 53.60 53.75 53.73 53.70 53.83 52.90 52.74 50.42 49.69 49.27 48.42 47.33 47.90 49.72 46.47 43.25 42.12 45.31 47.47 46.98 47.14 47.69 48.04 48.40 49.07 48.46 48.53 48.34
51.81 54.26 54.31 54.23 54.06 54.59 54.69 51.53 49.51 48.55 48.02 49.72 50.13 50.86 51.09 52.56 52.55 53.33 53.61 53.78 53.51 52.82 50.86 50.27 50.58 48.78 49.39 47.85 48.16 48.52 46.27 47.04 43.68 43.13 46.92 47.66 47.96 48.63 47.87 48.33 48.41 48.69 48.27
52.88 53.55 53.46 53.75 54.40 54.29 53.28 51.52 49.75 48.38 49.03 49.71 50.23 49.57 49.78 50.71 51.99 53.09 53.31 53.13 53.06 53.06 51.67 51.20 50.00 49.43 49.82 48.61 48.17 46.06 44.12 44.95 45.27 44.08 43.07 45.06 47.75 47.95 48.42 48.70 48.70 48.39 48.67
53.48 53.51 53.36 52.90 53.08 53.08 52.63 51.61 50.22 48.75 48.50 48.52 48.95 48.46 48.93 49.46 49.83 51.71 52.15 52.52 52.41 52.47 51.87 51.30 50.43 49.79 49.40 49.18 47.48 45.94 44.44 44.12 43.30 43.23 42.57 42.75 44.63 47.18 48.43 48.54 48.57 48.08 48.31
MSLP
1011.71 1011.41 1011.35 1011.49 1011.97 1012.27 1012.35 1012.51 1012.66 1012.94 1013.18 1013.42 1013.59 1013.82 1014.04 1014.17 1014.29 1014.48 1014.82 1015.05 1015.22 1015.43 1015.66 1015.91 1016.10 1016.33 1016.50 1016.71 1016.91 1017.05 1017.17 1017.35 1017.55 1017.74 1017.85 1017.93 1017.97 1017.92 1018.07 1018.24 1018.40 1018.47 1018.50
1011.21 1011.39 1011.47 1011.55 1011.91 1012.27 1012.47 1012.56 1012.84 1012.97 1013.20 1013.45 1013.68 1013.91 1014.20 1014.37 1014.56 1014.65 1014.92 1015.21 1015.35 1015.56 1015.85 1016.06 1016.28 1016.60 1016.78 1017.00 1017.12 1017.31 1017.49 1017.72 1017.91 1018.03 1018.15 1018.21 1018.22 1018.25 1018.38 1018.51 1018.63 1018.67 1018.65
1011.40 1011.24 1011.51 1011.56 1011.88 1012.19 1012.43 1012.63 1012.83 1013.07 1013.24 1013.43 1013.78 1013.94 1014.24 1014.47 1014.69 1014.86 1014.97 1015.24 1015.42 1015.65 1015.88 1016.22 1016.49 1016.80 1017.07 1017.24 1017.37 1017.55 1017.73 1017.94 1018.09 1018.23 1018.32 1018.40 1018.44 1018.42 1018.56 1018.73 1018.83 1018.94 1018.99
1011.59 1011.61 1011.46 1011.56 1011.74 1012.15 1012.42 1012.55 1012.80 1013.06 1013.23 1013.39 1013.64 1013.89 1014.19 1014.44 1014.67 1014.81 1015.03 1015.26 1015.49 1015.75 1016.11 1016.40 1016.75 1017.03 1017.33 1017.46 1017.58 1017.70 1017.90 1018.14 1018.31 1018.46 1018.60 1018.48 1018.55 1018.61 1018.76 1018.94 1019.10 1019.33 1019.44
1011.38 1011.78 1011.82 1011.52 1011.52 1011.83 1012.26 1012.54 1012.67 1012.92 1013.11 1013.41 1013.64 1013.92 1014.12 1014.31 1014.58 1014.88 1015.11 1015.34 1015.60 1015.83 1016.24 1016.65 1017.01 1017.28 1017.52 1017.63 1017.70 1017.84 1018.04 1018.34 1018.43 1018.50 1018.94 1018.83 1018.97 1018.99 1019.09 1019.37 1019.49 1019.79 1019.98
1011.62 1011.41 1011.68 1011.50 1011.37 1011.46 1011.83 1012.34 1012.53 1012.76 1012.96 1013.20 1013.49 1013.77 1014.03 1014.23 1014.53 1014.87 1015.28 1015.51 1015.81 1016.07 1016.34 1016.79 1017.15 1017.41 1017.68 1017.80 1017.84 1018.03 1018.30 1018.36 1018.49 1018.69 1019.20 1019.12 1019.41 1019.39 1019.58 1019.85 1019.93 1020.21 1020.38
1011.59 1011.46 1011.65 1011.51 1011.41 1011.57 1011.54 1011.91 1012.33 1012.52 1012.75 1013.01 1013.22 1013.61 1013.81 1014.21 1014.44 1014.92 1015.38 1015.72 1016.01 1016.29 1016.54 1016.95 1017.26 1017.47 1017.70 1017.92 1017.97 1018.28 1018.51 1018.62 1018.85 1019.15 1019.42 1019.54 1019.70 1019.88 1020.10 1020.22 1020.35 1020.52 1020.57
1011.52 1011.56 1011.66 1011.68 1011.19 1011.28 1011.43 1011.61 1012.08 1012.36 1012.62 1012.91 1013.10 1013.51 1013.76 1014.08 1014.42 1014.94 1015.54 1015.86 1016.25 1016.57 1016.79 1017.06 1017.35 1017.56 1017.68 1017.89 1018.10 1018.43 1018.62 1018.88 1019.21 1019.36 1019.62 1019.79 1020.07 1020.34 1020.50 1020.58 1020.66 1020.74 1020.78
1011.30 1011.49 1011.67 1011.65 1011.45 1011.01 1011.26 1011.31 1011.71 1012.26 1012.52 1012.74 1013.09 1013.47 1013.78 1014.01 1014.38 1015.01 1015.52 1015.94 1016.29 1016.62 1016.86 1017.10 1017.39 1017.58 1017.73 1017.88 1018.28 1018.46 1018.87 1019.15 1019.41 1019.57 1019.87 1020.24 1020.49 1020.63 1020.77 1020.87 1020.90 1020.94 1020.97
1011.38 1011.55 1011.74 1011.75 1011.65 1011.42 1011.22 1011.39 1011.51 1011.84 1012.32 1012.60 1012.97 1013.42 1013.85 1014.10 1014.29 1015.04 1015.54 1015.86 1016.23 1016.59 1016.86 1017.12 1017.35 1017.63 1017.86 1018.10 1018.37 1018.64 1019.12 1019.39 1019.70 1019.98 1020.23 1020.47 1020.71 1020.87 1021.01 1021.11 1021.09 1021.01 1021.03
1011.33 1011.45 1011.60 1011.79 1011.88 1011.76 1011.37 1011.41 1011.49 1011.63 1012.05 1012.55 1012.97 1013.36 1013.77 1014.03 1014.42 1014.98 1015.67 1015.84 1016.11 1016.55 1016.85 1017.07 1017.29 1017.61 1018.08 1018.30 1018.60 1018.91 1019.35 1019.63 1019.87 1020.26 1020.57 1020.73 1020.89 1021.05 1021.15 1021.26 1021.35 1021.35 1021.42
1011.29 1011.43 1011.49 1011.75 1012.05 1011.99 1011.69 1011.61 1011.50 1011.66 1011.89 1012.48 1012.81 1013.26 1013.60 1013.71 1014.40 1014.95 1015.58 1015.90 1016.08 1016.44 1016.78 1017.02 1017.30 1017.79 1018.24 1018.57 1018.77 1019.05 1019.44 1019.75 1020.08 1020.36 1020.81 1020.87 1020.99 1021.13 1021.33 1021.46 1021.62 1021.75 1021.94
1010.80 1011.16 1011.39 1011.53 1011.84 1012.18 1012.08 1011.91 1011.65 1011.65 1011.87 1012.25 1012.74 1012.92 1013.19 1013.64 1014.52 1015.06 1015.49 1015.91 1016.15 1016.29 1016.70 1017.05 1017.61 1018.15 1018.49 1018.72 1018.87 1019.03 1019.50 1019.81 1020.17 1020.48 1020.83 1021.18 1021.20 1021.31 1021.45 1021.63 1021.85 1022.10 1022.36
1010.43 1010.57 1011.05 1011.31 1011.61 1011.99 1012.26 1012.21 1012.02 1011.64 1011.74 1012.10 1012.24 1012.47 1012.68 1013.44 1014.34 1014.86 1015.29 1015.80 1016.16 1016.24 1016.82 1017.21 1017.71 1018.23 1018.46 1018.60 1018.83 1019.20 1019.56 1020.05 1020.36 1020.54 1021.05 1021.33 1021.49 1021.64 1021.77 1021.88 1022.09 1022.45 1022.63
1010.11 1010.25 1010.62 1010.98 1011.32 1011.72 1012.12 1012.24 1012.28 1011.92 1012.66 1012.58 1011.56 1011.77 1012.11 1012.80 1013.89 1014.38 1015.04 1015.51 1016.00 1016.10 1016.74 1017.19 1017.61 1018.14 1018.40 1018.52 1018.85 1019.06 1019.66 1020.18 1020.58 1020.80 1021.29 1021.48 1021.72 1021.85 1022.00 1022.26 1022.50 1022.77 1022.99
1009.60 1009.96 1010.34 1010.67 1011.00 1011.38 1011.69 1012.05 1012.07 1012.03 1012.37 1011.69 1012.20 1011.42 1011.31 1011.87 1012.97 1013.89 1014.55 1015.13 1015.74 1015.91 1016.43 1017.14 1017.56 1017.94 1018.33 1018.57 1019.02 1019.09 1019.82 1020.31 1020.85 1021.27 1021.60 1021.66 1021.93 1022.21 1022.34 1022.60 1022.91 1023.21 1023.42
1009.39 1009.59 1009.94 1010.23 1010.64 1011.12 1011.33 1011.50 1011.86 1011.64 1011.30 1011.12 1011.96 1013.00 1010.15 1010.97 1012.40 1013.26 1013.94 1014.70 1015.25 1015.44 1016.19 1017.03 1017.33 1017.77 1018.37 1018.67 1019.17 1019.69 1020.18 1020.76 1021.19 1021.62 1021.97 1022.14 1022.19 1022.34 1022.46 1022.72 1023.01 1023.39 1023.71
1009.28 1009.43 1009.64 1009.94 1010.39 1010.96 1011.10 1011.13 1011.36 1011.47 1011.18 1010.38 1011.40 1010.67 1008.96 1010.29 1011.88 1012.70 1013.52 1014.16 1014.67 1014.99 1015.93 1016.83 1017.34 1017.81 1018.49 1019.00 1019.50 1020.00 1020.54 1020.89 1021.35 1021.85 1022.31 1022.58 1022.82 1022.96 1022.98 1023.01 1023.23 1023.44 1023.72
1008.83 1009.16 1009.51 1009.75 1010.29 1010.86 1011.14 1011.08 1011.05 1011.29 1011.43 1011.23 1011.05 1011.42 1008.27 1009.73 1011.24 1011.94 1012.77 1013.51 1014.25 1014.85 1015.70 1016.61 1017.25 1017.75 1018.74 1019.43 1019.86 1020.42 1020.79 1021.23 1021.56 1021.93 1022.47 1022.77 1023.05 1023.40 1023.61 1023.65 1023.79 1023.95 1023.99
1008.70 1009.01 1009.26 1009.62 1010.08 1010.86 1011.23 1011.17 1011.08 1011.04 1011.39 1010.37 1009.90 1011.89 1010.08 1009.38 1010.87 1011.79 1012.10 1012.90 1013.74 1014.76 1015.68 1016.39 1017.18 1017.88 1018.65 1019.43 1020.14 1020.91 1021.29 1021.60 1021.85 1022.21 1022.55 1022.81 1023.20 1023.50 1023.88 1024.13 1024.32 1024.43 1024.42
1008.77 1009.08 1009.33 1009.67 1010.05 1010.62 1010.92 1011.01 1010.92 1010.80 1010.58 1010.05 1010.15 1011.71 1011.10 1009.37 1010.76 1011.35 1011.72 1012.51 1013.47 1014.48 1015.54 1016.28 1017.22 1017.96 1018.94 1019.29 1020.28 1021.55 1022.01 1022.07 1022.26 1022.53 1022.54 1022.94 1023.32 1023.58 1023.93 1024.26 1024.61 1024.83 1024.83
1009.21 1009.17 1009.49 1009.41 1009.54 1010.25 1010.64 1010.77 1010.73 1010.62 1010.57 1010.50 1009.88 1011.24 1010.79 1010.86 1010.40 1010.59 1011.46 1012.51 1013.37 1014.44 1015.52 1016.21 1016.88 1018.14 1018.93 1019.11 1020.13 1021.58 1022.66 1022.84 1022.70 1022.72 1022.78 1022.87 1023.33 1023.60 1023.91 1024.30 1024.53 1024.80 1025.02
1009.15 1009.06 1009.38 1009.56 1009.74 1009.89 1010.14 1010.56 1010.59 1010.59 1011.34 1011.16 1010.51 1011.26 1011.24 1012.15 1011.19 1010.67 1011.75 1012.54 1013.60 1014.36 1015.34 1016.04 1016.66 1017.51 1018.65 1019.40 1019.61 1020.62 1022.23 1022.46 1022.71 1022.99 1023.10 1023.05 1023.27 1023.57 1023.76 1023.97 1024.40 1024.69 1024.88
1008.86 1009.18 1009.26 1009.31 1009.27 1009.15 1009.56 1009.86 1009.92 1010.36 1010.91 1010.92 1010.66 1011.08 1010.53 1012.35 1012.30 1011.32 1012.19 1012.78 1013.70 1014.45 1015.36 1015.99 1016.56 1017.34 1018.22 1019.07 1019.79 1020.13 1020.28 1020.77 1022.02 1023.10 1023.13 1023.19 1023.24 1023.52 1023.67 1023.73 1024.00 1024.34 1024.59
1008.70 1008.99 1009.01 1008.99 1008.72 1008.76 1009.26 1009.46 1009.89 1010.22 1010.38 1011.07 1011.31 1009.83 1011.74 1012.19 1012.95 1012.03 1012.54 1013.24 1014.03 1014.71 1015.29 1015.89 1016.64 1017.32 1018.05 1018.90 1019.33 1020.14 1020.35 1020.57 1021.03 1021.92 1022.88 1023.28 1023.34 1023.32 1023.46 1023.49 1023.67 1024.06 1024.33
1008.43 1008.60 1008.67 1008.60 1008.54 1008.49 1008.79 1009.07 1009.37 1009.62 1010.27 1010.27 1010.25 1010.02 1011.88 1013.27 1013.58 1012.17 1012.55 1013.43 1014.25 1014.82 1015.35 1015.74 1016.48 1017.26 1018.06 1018.74 1019.30 1019.73 1019.96 1020.25 1020.65 1021.22 1022.31 1022.86 1023.20 1023.21 1023.29 1023.50 1023.44 1023.77 1024.11
Wind_Speed
2 6 11 13 11 9 11 11 14 15 14 13 14 14 13 14 16 17 17 17 16 16 16 16 16 15 15 15 16 16 17 16 16 15 13 10 11 11 14 16 13 10 14
8 7 12 13 13 9 10 11 13 12 14 13 15 15 13 14 15 17 17 17 17 18 16 15 15 15 15 14 14 15 15 15 14 13 11 9 8 14 16 15 11 11 17
4 11 10 14 13 10 11 9 13 13 14 13 17 16 13 14 15 15 16 16 16 17 16 16 15 15 13 14 13 13 13 13 12 11 10 5 5 13 14 16 18 19 19
8 5 8 13 15 13 10 12 13 14 13 13 11 12 15 15 15 16 17 15 15 17 15 15 14 14 13 12 11 11 10 10 8 7 4 7 9 18 20 20 20 19 19
8 3 7 14 14 16 13 12 14 14 14 14 15 14 14 15 14 15 14 16 16 17 17 15 15 14 13 11 10 9 7 8 3 3 6 8 6 16 21 19 18 16 15
8 7 7 15 16 16 16 13 15 16 15 15 16 15 15 16 17 16 14 12 12 14 16 15 14 14 12 11 9 8 9 9 11 11 6 12 8 17 18 17 16 14 13
6 7 9 13 16 14 16 15 14 17 17 16 17 16 17 18 19 17 14 12 12 12 14 14 14 14 13 10 9 9 8 11 8 9 7 7 8 15 14 14 14 14 13
6 6 5 12 15 16 17 17 14 17 16 16 15 16 17 18 18 17 14 13 13 13 13 14 15 14 14 12 10 9 10 13 10 10 9 9 14 13 12 13 13 12 13
4 2 5 6 8 14 15 17 16 16 16 15 15 16 16 18 18 18 15 14 14 14 14 14 15 15 12 14 11 8 16 13 9 9 10 5 12 11 12 12 13 12 12
4 3 4 5 5 6 4 13 15 16 15 15 16 15 14 15 17 15 13 13 14 14 13 13 14 14 13 12 10 17 16 13 10 9 6 7 13 14 14 14 14 15 17
2 4 4 4 5 5 3 3 10 14 14 14 13 14 14 9 11 12 7 11 13 14 14 15 16 16 11 11 16 15 10 7 9 7 4 13 15 15 15 15 14 17 18
5 4 5 5 4 4 3 4 2 6 7 7 10 12 8 9 7 9 8 10 13 16 16 16 15 14 8 4 7 11 6 8 7 7 4 13 15 15 14 14 12 18 17
7 5 6 6 5 3 3 2 2 2 5 7 10 11 9 8 7 6 4 5 4 10 7 9 8 4 5 4 4 6 8 7 5 6 9 11 13 15 15 15 16 16 16
7 9 7 6 6 3 1 2 4 2 5 6 10 12 10 8 8 7 6 5 4 4 6 7 5 5 6 6 5 7 8 7 4 4 7 13 13 14 14 14 17 15 15
7 8 8 7 6 5 3 2 0 6 3 11 9 14 11 11 10 9 8 5 4 6 7 6 7 5 5 5 4 12 10 8 6 4 3 11 12 13 13 14 14 14 15
7 8 8 7 7 6 5 4 2 2 4 3 6 9 15 12 11 10 10 8 5 7 8 7 7 4 4 5 6 11 10 8 7 6 4 6 13 12 12 12 12 12 11
6 8 11 9 8 7 6 5 4 5 6 6 1 18 16 16 14 13 10 9 7 9 10 6 6 4 5 4 8 10 9 8 7 7 5 4 5 7 12 14 14 13 12
5 10 8 7 7 5 5 4 3 3 1 3 6 16 18 18 16 13 10 10 9 9 8 6 6 5 5 5 5 6 7 7 8 7 5 4 4 4 8 10 12 13 12
7 8 8 8 7 5 4 3 3 5 3 4 8 11 16 18 17 14 11 9 10 8 8 8 3 7 6 5 6 5 5 6 7 6 6 6 6 5 4 10 11 9 9
5 6 6 5 7 6 5 2 2 2 3 2 10 9 14 14 15 13 11 10 10 9 8 7 8 5 7 7 8 6 5 4 4 5 6 5 5 6 5 5 4 4 6
3 5 7 7 6 6 3 2 2 2 2 2 8 8 15 10 11 13 10 11 10 10 8 10 7 12 4 7 6 4 4 4 5 4 4 5 5 5 6 5 3 3 3
2 4 5 8 9 6 5 4 2 2 1 4 7 6 12 8 6 11 10 9 10 10 11 10 10 5 4 4 6 4 3 3 2 2 3 5 6 5 5 5 5 5 4
4 4 4 5 5 6 8 3 3 4 1 4 7 4 5 9 4 9 8 9 9 9 9 9 10 11 9 1 11 6 4 4 3 1 3 4 5 4 4 6 6 6 6
5 4 5 5 8 9 9 8 6 5 4 3 7 6 8 3 3 6 7 8 9 7 9 8 8 6 10 9 4 1 2 5 5 2 1 3 5 5 6 4 6 6 6
6 7 6 5 6 7 7 9 7 7 4 4 5 9 6 3 4 6 7 7 7 6 8 9 8 9 8 5 7 3 2 2 3 4 3 2 1 3 4 5 5 5 6
6 8 7 6 3 6 7 9 10 11 9 7 6 5 3 3 4 6 7 6 6 6 9 8 7 8 6 5 3 3 3 3 3 3 3 2 4 2 2 4 4 5 4
Wind_Direction
184 168 151 142 156 161 155 161 155 152 153 148 141 131 129 128 127 128 128 127 128 127 124 120 114 106 106 105 107 105 102 101 101 96 88 88 91 85 107 95 85 83 79
160 171 164 151 156 180 166 169 163 158 150 156 147 141 142 141 142 139 138 139 137 132 132 124 123 107 108 107 110 110 111 112 113 105 95 81 93 92 104 96 97 98 90
146 164 175 161 159 182 184 169 161 161 159 165 158 153 154 154 152 152 150 151 146 136 137 131 125 123 110 109 114 120 122 129 132 118 104 97 108 106 103 95 94 92 83
50 178 177 171 167 180 187 176 163 170 167 166 166 160 169 168 166 164 160 159 151 136 136 134 131 121 123 120 124 126 132 135 142 126 78 86 98 111 102 95 84 77 69
12 78 205 186 177 179 186 194 171 171 169 170 169 176 179 175 172 170 161 149 140 135 133 132 132 131 131 133 134 134 122 67 54 103 83 86 81 93 88 82 80 78 78
13 19 332 200 190 184 181 188 186 180 180 176 175 179 177 180 162 151 144 136 124 130 134 140 141 140 141 145 149 141 89 53 76 88 94 88 83 88 90 87 86 82 77
39 348 9 228 202 197 184 191 198 189 186 187 178 188 185 171 155 141 134 127 129 136 145 151 152 149 149 156 164 115 87 91 92 93 88 78 82 84 86 87 86 81 81
73 354 10 335 214 197 197 194 201 198 191 188 184 189 180 158 141 139 145 143 150 157 159 161 161 158 155 158 153 111 86 104 97 96 94 89 90 94 96 92 86 90 89
118 72 15 348 321 214 207 195 194 202 198 192 189 183 168 149 141 147 154 158 161 163 161 162 163 160 158 155 129 128 120 110 101 96 90 80 98 105 101 101 99 99 102
144 101 38 8 344 342 243 220 201 195 195 187 182 170 151 144 137 146 157 163 166 162 159 160 162 160 144 134 123 105 103 101 104 95 93 95 106 111 111 110 107 94 99
168 149 108 44 0 346 39 317 227 199 191 186 171 155 149 143 143 143 159 168 166 162 162 167 166 143 141 139 122 109 113 111 105 107 96 113 112 117 114 118 107 96 96
216 190 141 101 40 349 5 21 258 222 191 178 170 165 160 138 134 148 160 178 169 180 163 177 139 136 136 139 131 125 124 119 117 117 113 112 121 114 114 119 115 100 96
212 161 166 132 108 8 344 355 14 210 183 174 177 169 162 135 154 159 153 181 175 165 165 142 132 130 155 149 145 130 130 121 127 115 107 120 124 120 123 113 113 109 102
200 180 161 146 133 115 24 6 41 355 173 188 179 177 158 156 162 160 167 173 169 155 140 145 145 162 169 173 149 122 126 127 117 109 125 135 127 126 117 122 101 100 106
199 169 168 151 146 148 131 95 347 114 7 46 211 179 168 162 164 159 165 161 152 148 153 146 154 170 182 155 154 144 129 126 108 107 122 137 126 136 121 103 111 101 100
192 173 162 160 158 160 176 178 173 214 196 101 40 248 173 160 160 167 162 164 156 155 154 160 167 182 173 142 123 125 125 115 112 108 112 138 140 125 124 122 118 120 113
202 169 179 165 160 172 196 206 198 231 244 300 274 318 171 155 164 163 165 167 166 161 158 156 169 143 122 118 111 123 126 123 116 105 104 82 97 105 138 127 127 121 116
216 188 172 160 156 180 197 221 214 205 145 58 331 299 173 160 164 160 166 170 171 155 159 159 153 124 116 119 110 116 126 124 120 118 109 103 79 68 57 105 124 132 127
217 171 169 158 149 166 185 206 205 172 184 138 31 308 175 159 164 165 165 167 164 154 158 156 134 130 123 106 104 99 106 124 134 133 133 125 118 106 91 86 80 96 128
215 172 157 146 135 157 181 183 255 190 218 126 74 326 236 154 160 169 155 154 158 153 151 141 136 117 130 126 107 88 89 105 115 132 144 141 135 132 121 103 94 91 105
174 160 178 155 153 158 172 165 234 258 177 36 99 355 309 134 150 155 146 138 144 146 146 141 127 129 110 127 101 65 45 52 106 140 142 132 142 144 145 141 133 112 90
67 199 211 183 162 181 204 195 189 163 312 155 113 147 332 335 135 134 132 136 139 135 140 143 140 123 106 143 125 99 98 0 3 184 154 152 156 152 158 157 156 161 151
210 211 198 186 203 204 192 158 133 80 349 156 127 122 114 295 327 115 120 131 132 139 148 145 144 142 152 73 146 134 141 190 128 179 202 177 166 157 170 161 171 175 166
205 189 215 208 196 206 198 168 173 163 173 209 157 126 101 239 267 107 116 129 136 136 142 148 146 137 153 155 158 94 109 139 156 149 243 187 177 173 181 185 165 173 169
152 182 204 234 214 196 181 162 161 156 130 136 157 127 97 87 227 133 125 121 130 142 143 144 136 147 166 148 172 152 113 84 106 133 157 170 129 191 194 183 175 174 170
171 189 201 207 197 169 169 167 161 156 157 142 128 93 114 151 231 132 120 128 138 142 154 147 137 143 154 130 135 153 152 156 164 142 124 138 160 190 173 197 171 176 176